This is the latest recevied weather packets stored in our database for station/object DN9EM-1. If no packets are shown the sender has not sent any weather packets the latest 10 day(s).
| Time | Temp. | Humidity | Pressure | Rain* | Wind** | Luminosity | Snow |
|---|---|---|---|---|---|---|---|
| 1777483855 | 13.33° C | 37% | 1031.8 hPa | 0 mm | - | - | - |
| 1777483247 | 13.89° C | 36% | 1031.9 hPa | 0 mm | - | - | - |
| 1777482644 | 13.89° C | 36% | 1031.9 hPa | 0 mm | - | - | - |
| 1777482036 | 14.44° C | 36% | 1031.9 hPa | 0 mm | - | - | - |
| 1777481433 | 14.44° C | 35% | 1031.9 hPa | 0 mm | - | - | - |
| 1777480831 | 14.44° C | 35% | 1031.9 hPa | 0 mm | - | - | - |
| 1777480223 | 14.44° C | 35% | 1031.7 hPa | 0 mm | - | - | - |
| 1777479621 | 14.44° C | 36% | 1031.7 hPa | 0 mm | - | - | - |
| 1777479072 | 15° C | 37% | 1031.8 hPa | 0 mm | - | - | - |
| 1777478470 | 15° C | 40% | 1031.7 hPa | 0 mm | - | - | - |
| 1777477867 | 15° C | 41% | 1031.6 hPa | 0 mm | - | - | - |
| 1777477259 | 15.56° C | 45% | 1031.5 hPa | 0 mm | - | - | - |
| 1777476657 | 15.56° C | 47% | 1031.5 hPa | 0 mm | - | - | - |
| 1777476048 | 16.11° C | 46% | 1031.5 hPa | 0 mm | - | - | - |
| 1777475446 | 16.11° C | 42% | 1031.5 hPa | 0 mm | - | - | - |
| 1777474843 | 15.56° C | 42% | 1031.6 hPa | 0 mm | - | - | - |
| 1777474235 | 16.11° C | 40% | 1031.6 hPa | 0 mm | - | - | - |
| 1777473633 | 16.11° C | 37% | 1031.7 hPa | 0 mm | - | - | - |
| 1777473024 | 16.11° C | 36% | 1031.7 hPa | 0 mm | - | - | - |
| 1777472422 | 16.11° C | 36% | 1031.7 hPa | 0 mm | - | - | - |
| 1777471819 | 16.11° C | 35% | 1031.7 hPa | 0 mm | - | - | - |
| 1777471271 | 16.11° C | 35% | 1031.7 hPa | 0 mm | - | - | - |
| 1777470668 | 16.67° C | 35% | 1031.8 hPa | 0 mm | - | - | - |
| 1777470060 | 16.11° C | 36% | 1031.9 hPa | 0 mm | - | - | - |
| 1777469458 | 16.11° C | 36% | 1031.9 hPa | 0 mm | - | - | - |
* Rain latest hour (hover to see other rain measurements)
** Current wind speed in m/s (hover to see current wind gust speed)